Time,TemperatureF,DewpointF,PressureIn,WindDirection,WindDirectionDegrees,WindSpeedMPH,WindSpeedGustMPH,Humidity,HourlyPrecipIn,Conditions,Clouds,dailyrainin,SoftwareType,DateUTC
2013-03-29 00:03:00,47.0,44.0,30.29,East,90,0.0,0.0,88,0.00,,,0.00,,2013-03-29 04:03:00,
2013-03-29 00:13:00,47.0,44.0,30.29,East,90,0.0,0.0,88,0.00,,,0.00,,2013-03-29 04:13:00,
2013-03-29 00:22:00,46.0,43.0,30.29,East,90,0.0,0.0,88,0.00,,,0.00,,2013-03-29 04:22:00,
2013-03-29 00:33:00,46.0,43.0,30.29,East,90,0.0,0.0,89,0.00,,,0.00,,2013-03-29 04:33:00,
2013-03-29 00:43:00,46.0,43.0,30.29,East,90,0.0,0.0,89,0.00,,,0.00,,2013-03-29 04:43:00,
2013-03-29 00:53:00,46.0,43.0,30.29,East,90,0.0,0.0,90,0.00,,,0.00,,2013-03-29 04:53:00,
2013-03-29 01:03:00,46.0,43.0,30.29,East,90,0.0,0.0,90,0.00,,,0.00,,2013-03-29 05:03:00,
2013-03-29 01:12:00,46.0,43.0,30.29,East,90,0.0,0.0,90,0.00,,,0.00,,2013-03-29 05:12:00,
2013-03-29 01:23:00,46.0,44.0,30.29,East,90,0.0,0.0,91,0.00,,,0.00,,2013-03-29 05:23:00,
2013-03-29 01:33:00,46.0,44.0,30.28,East,90,0.0,0.0,91,0.00,,,0.00,,2013-03-29 05:33:00,
2013-03-29 01:43:00,46.0,44.0,30.28,East,90,0.0,0.0,91,0.00,,,0.00,,2013-03-29 05:43:00,
2013-03-29 01:52:00,45.0,43.0,30.29,East,90,0.0,0.0,91,0.00,,,0.00,,2013-03-29 05:52:00,
2013-03-29 02:02:00,45.0,43.0,30.29,East,90,0.0,0.0,93,0.00,,,0.00,,2013-03-29 06:02:00,
2013-03-29 02:12:00,45.0,43.0,30.29,East,90,0.0,0.0,93,0.00,,,0.00,,2013-03-29 06:12:00,
2013-03-29 02:23:00,45.0,43.0,30.28,East,90,0.0,0.0,93,0.00,,,0.00,,2013-03-29 06:23:00,
2013-03-29 02:32:00,45.0,43.0,30.28,East,90,0.0,0.0,94,0.00,,,0.00,,2013-03-29 06:32:00,
2013-03-29 02:42:00,45.0,43.0,30.28,East,90,0.0,0.0,94,0.00,,,0.00,,2013-03-29 06:42:00,
2013-03-29 02:52:00,45.0,43.0,30.28,East,90,0.0,0.0,94,0.00,,,0.00,,2013-03-29 06:52:00,
2013-03-29 03:03:00,45.0,43.0,30.28,East,90,0.0,0.0,94,0.00,,,0.00,,2013-03-29 07:03:00,
2013-03-29 03:12:00,45.0,43.0,30.28,East,90,0.0,0.0,94,0.00,,,0.00,,2013-03-29 07:12:00,
2013-03-29 03:22:00,45.0,43.0,30.27,East,90,0.0,0.0,94,0.00,,,0.00,,2013-03-29 07:22:00,
2013-03-29 03:32:00,45.0,44.0,30.27,East,90,0.0,0.0,95,0.00,,,0.00,,2013-03-29 07:32:00,
2013-03-29 03:42:00,45.0,44.0,30.27,East,90,0.0,0.0,95,0.00,,,0.00,,2013-03-29 07:42:00,
2013-03-29 03:52:00,45.0,44.0,30.27,East,90,0.0,0.0,95,0.00,,,0.00,,2013-03-29 07:52:00,
2013-03-29 04:02:00,45.0,44.0,30.27,East,90,0.0,0.0,96,0.00,,,0.00,,2013-03-29 08:02:00,
2013-03-29 04:12:00,45.0,44.0,30.27,East,90,0.0,0.0,96,0.00,,,0.00,,2013-03-29 08:12:00,
2013-03-29 04:22:00,45.0,44.0,30.27,East,90,0.0,0.0,96,0.00,,,0.00,,2013-03-29 08:22:00,
2013-03-29 04:32:00,45.0,44.0,30.27,East,90,0.0,0.0,96,0.00,,,0.00,,2013-03-29 08:32:00,
2013-03-29 04:42:00,45.0,44.0,30.27,East,90,0.0,0.0,96,0.00,,,0.00,,2013-03-29 08:42:00,
2013-03-29 05:02:00,44.0,43.0,30.27,East,90,0.0,0.0,96,0.00,,,0.00,,2013-03-29 09:02:00,
2013-03-29 05:13:00,44.0,43.0,30.27,East,90,0.0,0.0,96,0.00,,,0.00,,2013-03-29 09:13:00,
2013-03-29 05:22:00,44.0,43.0,30.27,East,90,0.0,0.0,96,0.00,,,0.00,,2013-03-29 09:22:00,
2013-03-29 05:33:00,43.0,42.0,30.27,East,90,0.0,0.0,96,0.00,,,0.00,,2013-03-29 09:33:00,
2013-03-29 05:43:00,43.0,42.0,30.27,East,90,0.0,0.0,96,0.00,,,0.00,,2013-03-29 09:43:00,
2013-03-29 05:52:00,43.0,42.0,30.28,East,90,0.0,0.0,96,0.00,,,0.00,,2013-03-29 09:52:00,
2013-03-29 06:03:00,43.0,42.0,30.28,East,90,0.0,0.0,97,0.00,,,0.00,,2013-03-29 10:03:00,
2013-03-29 06:12:00,43.0,42.0,30.28,East,90,0.0,0.0,97,0.00,,,0.00,,2013-03-29 10:12:00,
2013-03-29 06:23:00,43.0,42.0,30.28,East,90,0.0,0.0,96,0.00,,,0.00,,2013-03-29 10:23:00,
2013-03-29 06:33:00,43.0,42.0,30.28,East,90,0.0,0.0,97,0.00,,,0.00,,2013-03-29 10:33:00,
2013-03-29 06:42:00,43.0,42.0,30.28,East,90,0.0,0.0,97,0.00,,,0.00,,2013-03-29 10:42:00,
2013-03-29 06:53:00,43.0,42.0,30.29,East,90,0.0,0.0,97,0.00,,,0.00,,2013-03-29 10:53:00,
2013-03-29 07:03:00,42.0,41.0,30.29,East,90,0.0,0.0,97,0.00,,,0.00,,2013-03-29 11:03:00,
2013-03-29 07:12:00,42.0,41.0,30.29,East,90,0.0,0.0,97,0.00,,,0.00,,2013-03-29 11:12:00,
2013-03-29 07:23:00,42.0,41.0,30.30,East,90,0.0,0.0,97,0.00,,,0.00,,2013-03-29 11:23:00,
2013-03-29 07:33:00,42.0,41.0,30.30,East,90,0.0,0.0,97,0.00,,,0.00,,2013-03-29 11:33:00,
2013-03-29 07:42:00,42.0,41.0,30.30,East,90,0.0,0.0,97,0.00,,,0.00,,2013-03-29 11:42:00,
2013-03-29 07:53:00,42.0,41.0,30.30,East,90,0.0,0.0,97,0.00,,,0.00,,2013-03-29 11:53:00,
2013-03-29 08:03:00,42.0,41.0,30.31,East,90,0.0,0.0,97,0.00,,,0.00,,2013-03-29 12:03:00,
2013-03-29 08:12:00,42.0,41.0,30.31,East,90,0.0,0.0,97,0.00,,,0.00,,2013-03-29 12:12:00,
2013-03-29 08:22:00,43.0,42.0,30.31,East,90,0.0,0.0,98,0.00,,,0.00,,2013-03-29 12:22:00,
2013-03-29 08:32:00,43.0,42.0,30.31,East,90,0.0,0.0,98,0.00,,,0.00,,2013-03-29 12:32:00,
2013-03-29 08:42:00,43.0,42.0,30.31,East,90,0.0,0.0,98,0.00,,,0.00,,2013-03-29 12:42:00,
2013-03-29 08:53:00,46.0,45.0,30.32,West,274,0.0,1.0,98,0.00,,,0.00,,2013-03-29 12:53:00,
2013-03-29 09:03:00,48.0,47.0,30.33,West,279,0.0,1.0,98,0.00,,,0.00,,2013-03-29 13:03:00,
2013-03-29 09:12:00,48.0,47.0,30.33,West,279,0.0,1.0,98,0.00,,,0.00,,2013-03-29 13:12:00,
2013-03-29 09:22:00,49.0,48.0,30.33,WNW,287,0.0,1.0,96,0.00,,,0.00,,2013-03-29 13:22:00,
2013-03-29 09:32:00,52.0,49.0,30.33,WNW,285,0.0,1.0,90,0.00,,,0.00,,2013-03-29 13:32:00,
2013-03-29 09:42:00,52.0,49.0,30.33,WNW,285,0.0,1.0,90,0.00,,,0.00,,2013-03-29 13:42:00,
2013-03-29 09:52:00,54.0,50.0,30.34,WNW,284,0.0,2.0,86,0.00,,,0.00,,2013-03-29 13:52:00,
2013-03-29 10:03:00,57.0,51.0,30.34,West,271,0.0,2.0,80,0.00,,,0.00,,2013-03-29 14:03:00,
2013-03-29 10:12:00,57.0,51.0,30.34,West,271,0.0,2.0,80,0.00,,,0.00,,2013-03-29 14:12:00,
2013-03-29 10:22:00,60.0,51.0,30.34,NW,308,0.0,2.0,72,0.00,,,0.00,,2013-03-29 14:22:00,
2013-03-29 10:32:00,62.0,49.0,30.34,NNE,14,0.0,4.0,63,0.00,,,0.00,,2013-03-29 14:32:00,
2013-03-29 10:42:00,62.0,49.0,30.34,NNE,14,0.0,4.0,63,0.00,,,0.00,,2013-03-29 14:42:00,
2013-03-29 10:53:00,64.0,48.0,30.34,NNE,22,0.0,2.0,56,0.00,,,0.00,,2013-03-29 14:53:00,
2013-03-29 11:02:00,66.0,47.0,30.35,North,1,0.0,4.0,51,0.00,,,0.00,,2013-03-29 15:02:00,
2013-03-29 11:12:00,66.0,47.0,30.35,North,1,0.0,4.0,51,0.00,,,0.00,,2013-03-29 15:12:00,
2013-03-29 11:22:00,67.0,47.0,30.35,NNE,22,1.0,6.0,48,0.00,,,0.00,,2013-03-29 15:22:00,
2013-03-29 11:33:00,67.0,46.0,30.35,North,351,1.0,6.0,47,0.00,,,0.00,,2013-03-29 15:33:00,
2013-03-29 11:43:00,67.0,46.0,30.35,North,351,1.0,6.0,47,0.00,,,0.00,,2013-03-29 15:43:00,
2013-03-29 11:53:00,68.0,48.0,30.34,North,359,0.0,2.0,48,0.00,,,0.00,,2013-03-29 15:53:00,
2013-03-29 12:03:00,69.0,47.0,30.34,North,9,1.0,3.0,46,0.00,,,0.00,,2013-03-29 16:03:00,
2013-03-29 12:13:00,69.0,47.0,30.34,North,9,1.0,3.0,46,0.00,,,0.00,,2013-03-29 16:13:00,
2013-03-29 12:23:00,69.0,46.0,30.33,NE,39,0.0,2.0,44,0.00,,,0.00,,2013-03-29 16:23:00,
2013-03-29 12:33:00,70.0,46.0,30.33,East,86,0.0,3.0,43,0.00,,,0.00,,2013-03-29 16:33:00,
2013-03-29 12:43:00,70.0,46.0,30.33,East,86,0.0,3.0,43,0.00,,,0.00,,2013-03-29 16:43:00,
2013-03-29 12:53:00,70.0,46.0,30.33,North,5,0.0,3.0,42,0.00,,,0.00,,2013-03-29 16:53:00,
2013-03-29 13:03:00,71.0,45.0,30.32,NE,55,0.0,3.0,40,0.00,,,0.00,,2013-03-29 17:03:00,
2013-03-29 13:12:00,71.0,45.0,30.32,NE,55,0.0,3.0,40,0.00,,,0.00,,2013-03-29 17:12:00,
2013-03-29 13:23:00,71.0,44.0,30.32,SE,130,1.0,5.0,38,0.00,,,0.00,,2013-03-29 17:23:00,
2013-03-29 13:33:00,71.0,45.0,30.31,NNE,28,0.0,2.0,40,0.00,,,0.00,,2013-03-29 17:33:00,
2013-03-29 13:43:00,71.0,45.0,30.31,NNE,28,0.0,2.0,40,0.00,,,0.00,,2013-03-29 17:43:00,
2013-03-29 13:53:00,71.0,45.0,30.30,ENE,65,1.0,5.0,40,0.00,,,0.00,,2013-03-29 17:53:00,
2013-03-29 14:02:00,72.0,45.0,30.30,East,89,1.0,5.0,38,0.00,,,0.00,,2013-03-29 18:02:00,
2013-03-29 14:12:00,72.0,45.0,30.30,East,89,1.0,5.0,38,0.00,,,0.00,,2013-03-29 18:12:00,
2013-03-29 14:23:00,72.0,45.0,30.29,ENE,75,0.0,3.0,38,0.00,,,0.00,,2013-03-29 18:23:00,
2013-03-29 14:32:00,72.0,45.0,30.29,NNE,25,0.0,3.0,38,0.00,,,0.00,,2013-03-29 18:32:00,
2013-03-29 14:42:00,72.0,45.0,30.29,NNE,25,0.0,3.0,38,0.00,,,0.00,,2013-03-29 18:42:00,
2013-03-29 14:52:00,72.0,45.0,30.28,East,82,0.0,2.0,38,0.00,,,0.00,,2013-03-29 18:52:00,
2013-03-29 15:03:00,73.0,44.0,30.27,ESE,108,0.0,2.0,35,0.00,,,0.00,,2013-03-29 19:03:00,
2013-03-29 15:12:00,73.0,44.0,30.27,ENE,75,1.0,3.0,36,0.00,,,0.00,,2013-03-29 19:12:00,
2013-03-29 15:23:00,73.0,44.0,30.27,ENE,75,1.0,3.0,36,0.00,,,0.00,,2013-03-29 19:23:00,
2013-03-29 15:33:00,72.0,44.0,30.27,ENE,71,0.0,2.0,36,0.00,,,0.00,,2013-03-29 19:33:00,
2013-03-29 15:42:00,72.0,44.0,30.27,ENE,71,0.0,2.0,36,0.00,,,0.00,,2013-03-29 19:42:00,
2013-03-29 15:53:00,73.0,43.0,30.26,NE,35,1.0,3.0,34,0.00,,,0.00,,2013-03-29 19:53:00,
2013-03-29 16:02:00,72.0,44.0,30.26,East,82,0.0,3.0,36,0.00,,,0.00,,2013-03-29 20:02:00,
2013-03-29 16:12:00,72.0,44.0,30.26,East,82,0.0,3.0,36,0.00,,,0.00,,2013-03-29 20:12:00,
2013-03-29 16:22:00,73.0,44.0,30.26,ENE,60,0.0,3.0,35,0.00,,,0.00,,2013-03-29 20:22:00,
2013-03-29 16:33:00,74.0,44.0,30.25,ENE,61,0.0,2.0,34,0.00,,,0.00,,2013-03-29 20:33:00,
2013-03-29 16:42:00,74.0,44.0,30.25,ENE,61,0.0,2.0,34,0.00,,,0.00,,2013-03-29 20:42:00,
2013-03-29 16:52:00,74.0,45.0,30.25,ENE,65,0.0,3.0,35,0.00,,,0.00,,2013-03-29 20:52:00,
2013-03-29 17:02:00,73.0,43.0,30.25,NE,46,0.0,3.0,34,0.00,,,0.00,,2013-03-29 21:02:00,
2013-03-29 17:12:00,73.0,43.0,30.25,NE,46,0.0,3.0,34,0.00,,,0.00,,2013-03-29 21:12:00,
2013-03-29 17:22:00,73.0,44.0,30.24,ESE,106,0.0,3.0,35,0.00,,,0.00,,2013-03-29 21:22:00,
2013-03-29 17:33:00,73.0,42.0,30.24,NE,41,0.0,3.0,33,0.00,,,0.00,,2013-03-29 21:33:00,
2013-03-29 17:43:00,73.0,42.0,30.24,NE,41,0.0,3.0,33,0.00,,,0.00,,2013-03-29 21:43:00,
2013-03-29 17:53:00,73.0,44.0,30.24,ENE,61,0.0,1.0,35,0.00,,,0.00,,2013-03-29 21:53:00,
2013-03-29 18:03:00,73.0,43.0,30.24,East,101,0.0,2.0,34,0.00,,,0.00,,2013-03-29 22:03:00,
2013-03-29 18:13:00,73.0,43.0,30.24,East,101,0.0,2.0,34,0.00,,,0.00,,2013-03-29 22:13:00,
2013-03-29 18:23:00,73.0,44.0,30.23,ENE,57,0.0,2.0,35,0.00,,,0.00,,2013-03-29 22:23:00,
2013-03-29 18:33:00,72.0,44.0,30.23,East,100,0.0,2.0,36,0.00,,,0.00,,2013-03-29 22:33:00,
2013-03-29 18:42:00,72.0,44.0,30.23,East,100,0.0,2.0,36,0.00,,,0.00,,2013-03-29 22:42:00,
2013-03-29 18:54:00,72.0,46.0,30.23,SE,125,0.0,1.0,39,0.00,,,0.00,,2013-03-29 22:54:00,
2013-03-29 19:03:00,70.0,46.0,30.24,ENE,72,0.0,1.0,43,0.00,,,0.00,,2013-03-29 23:03:00,
2013-03-29 19:12:00,70.0,46.0,30.24,ENE,72,0.0,1.0,43,0.00,,,0.00,,2013-03-29 23:12:00,
2013-03-29 19:22:00,68.0,47.0,30.24,NNE,15,0.0,1.0,47,0.00,,,0.00,,2013-03-29 23:22:00,
2013-03-29 19:32:00,66.0,47.0,30.24,East,90,0.0,0.0,50,0.00,,,0.00,,2013-03-29 23:32:00,
2013-03-29 19:42:00,66.0,47.0,30.24,East,90,0.0,0.0,50,0.00,,,0.00,,2013-03-29 23:42:00,
2013-03-29 19:52:00,64.0,48.0,30.24,East,90,0.0,0.0,56,0.00,,,0.00,,2013-03-29 23:52:00,
2013-03-29 20:03:00,62.0,47.0,30.24,East,90,0.0,0.0,59,0.00,,,0.00,,2013-03-30 00:03:00,
2013-03-29 20:12:00,62.0,47.0,30.24,East,90,0.0,0.0,59,0.00,,,0.00,,2013-03-30 00:12:00,
2013-03-29 20:22:00,61.0,48.0,30.24,East,90,0.0,0.0,62,0.00,,,0.00,,2013-03-30 00:22:00,
2013-03-29 20:32:00,59.0,48.0,30.25,East,90,0.0,0.0,68,0.00,,,0.00,,2013-03-30 00:32:00,
2013-03-29 20:42:00,59.0,48.0,30.25,East,90,0.0,0.0,68,0.00,,,0.00,,2013-03-30 00:42:00,
2013-03-29 20:52:00,58.0,49.0,30.25,East,90,0.0,0.0,72,0.00,,,0.00,,2013-03-30 00:52:00,
2013-03-29 21:03:00,57.0,49.0,30.25,East,90,0.0,0.0,74,0.00,,,0.00,,2013-03-30 01:03:00,
2013-03-29 21:12:00,57.0,49.0,30.25,East,90,0.0,0.0,74,0.00,,,0.00,,2013-03-30 01:12:00,
2013-03-29 21:22:00,57.0,50.0,30.25,East,90,0.0,0.0,76,0.00,,,0.00,,2013-03-30 01:22:00,
2013-03-29 21:33:00,56.0,49.0,30.26,East,90,0.0,0.0,77,0.00,,,0.00,,2013-03-30 01:33:00,
2013-03-29 21:43:00,56.0,49.0,30.26,East,90,0.0,0.0,77,0.00,,,0.00,,2013-03-30 01:43:00,
2013-03-29 21:53:00,56.0,49.0,30.26,East,90,0.0,0.0,78,0.00,,,0.00,,2013-03-30 01:53:00,
2013-03-29 22:03:00,55.0,49.0,30.26,East,90,0.0,0.0,79,0.00,,,0.00,,2013-03-30 02:03:00,
2013-03-29 22:13:00,55.0,49.0,30.26,East,90,0.0,0.0,79,0.00,,,0.00,,2013-03-30 02:13:00,
2013-03-29 22:22:00,55.0,49.0,30.26,East,90,0.0,0.0,81,0.00,,,0.00,,2013-03-30 02:22:00,
2013-03-29 22:33:00,54.0,49.0,30.27,East,90,0.0,0.0,82,0.00,,,0.00,,2013-03-30 02:33:00,
2013-03-29 22:42:00,54.0,49.0,30.27,East,90,0.0,0.0,82,0.00,,,0.00,,2013-03-30 02:42:00,
2013-03-29 22:53:00,53.0,48.0,30.27,East,90,0.0,0.0,83,0.00,,,0.00,,2013-03-30 02:53:00,
2013-03-29 23:03:00,53.0,49.0,30.27,East,90,0.0,0.0,85,0.00,,,0.00,,2013-03-30 03:03:00,
2013-03-29 23:12:00,52.0,48.0,30.28,East,90,0.0,0.0,86,0.00,,,0.00,,2013-03-30 03:12:00,
2013-03-29 23:22:00,52.0,48.0,30.28,East,90,0.0,0.0,86,0.00,,,0.00,,2013-03-30 03:22:00,
2013-03-29 23:33:00,52.0,48.0,30.27,East,90,0.0,0.0,86,0.00,,,0.00,,2013-03-30 03:33:00,
2013-03-29 23:43:00,52.0,48.0,30.27,East,90,0.0,0.0,86,0.00,,,0.00,,2013-03-30 03:43:00,
2013-03-29 23:53:00,51.0,47.0,30.27,East,90,0.0,0.0,87,0.00,,,0.00,,2013-03-30 03:53:00,